Location: Bosler Junction
(41.5528°N, 105.6814°W)
Time: 03:16:03
(UTC+00:00)

N. Korean satellite - Visible Passes

Search period start: 21 January 2022 00:00
Search period end: 31 January 2022 00:00
Orbit: 446 x 491 km, 97.3° (Epoch: 20 January)

Date Brightness Start Highest point End Pass type
(mag) Time Alt. Az. Time Alt. Az. Time Alt. Az.
21 Jan9.911:32:43SSE11:32:43SSE11:25:23NEvisible
21 Jan 8.2 12:58:05 10° N 12:59:27 19° NNW 12:59:27 19° NNW visible
22 Jan 8.0 12:28:36 10° N 12:37:21 - SSW 12:30:23 27° N visible
23 Jan 10.0 00:37:46 10° WSW 00:39:01 12° W 00:40:18 10° WNW visible
23 Jan 8.5 11:59:32 10° NNE 12:07:55 - S 12:01:17 25° NE visible
23 Jan 8.6 13:34:27 10° NW 13:35:21 11° WNW 13:35:21 11° WNW visible
24 Jan 9.4 11:31:00 10° NE 11:38:28 - SSE 11:32:12 16° ENE visible
24 Jan 7.8 13:03:52 10° NNW 13:06:15 23° NW 13:06:15 23° NW visible
25 Jan 6.9 12:34:14 10° N 12:43:02 - SSW 12:37:10 48° NNW visible
26 Jan 7.3 12:05:03 10° NNE 12:13:31 - S 12:08:06 50° ENE visible
27 Jan 8.9 11:36:21 10° NE 11:43:58 - SSE 11:39:02 23° E visible
27 Jan 7.8 13:09:33 10° NNW 13:12:21 21° WNW 13:13:05 20° W visible
28 Jan 10.0 11:09:08 10° ENE 11:09:53 11° E 11:09:58 11° E visible
28 Jan 6.7 12:39:46 10° N 12:43:17 47° WNW 12:44:02 40° WSW visible
29 Jan 6.8 12:10:28 10° NNE 12:14:06 68° E 12:15:01 46° SSE visible
30 Jan 8.6 11:41:37 10° NE 11:44:46 27° E 11:46:03 22° SE visible
30 Jan 8.0 13:15:08 10° NNW 13:17:42 18° WNW 13:20:07 11° WSW visible
